Location: Newark
(49.9833°N, 3.7472°E)
Time: 01:11:10
(UTC+00:00)

N. Korean satellite - Pass Details

Date: 02 October 2019
Orbit: 455 x 508 km, 97.2° (Epoch: 20 October)

Event Time Altitude Azimuth Distance (km) Brightness Sun altitude
Rises 04:34:32 0° 32° (NNE) 2,491 10.8 -12.3°
Reaches altitude 10° 04:37:47 10° 66° (ENE) 1,616 10.6 -11.7°
Maximum altitude 04:39:06 12° 89° (E) 1,510 10.5 -11.5°
Drops below altitude 10° 04:40:25 10° 112° (ESE) 1,618 10.2 -11.3°
Sets 04:43:40 0° 145° (SE) 2,499 10.6 -10.8°
